Theta_e
309 309 309 309 309 309 309 309 310 310 310 307 306 305 305 305 306 300 298 300 296 290 292 294 296 293 293 291 288 292 292 294 289 284 285 285 283 285 282 288 285 285 285 275 279 281 276 294 292 284 287 291 293 294
308 308 308 308 309 308 308 309 309 309 309 308 306 306 305 305 306 302 294 301 301 293 292 297 297 299 298 297 291 293 292 293 293 286 285 287 286 283 283 278 292 282 285 283 283 281 291 293 291 293 293 292 294 295
308 308 308 308 308 308 308 308 309 309 309 307 306 306 305 305 306 302 296 298 295 292 292 293 294 300 301 299 300 291 296 296 294 294 287 285 282 285 277 284 290 292 292 284 284 289 289 292 293 294 295 295 296 297
307 307 307 307 307 308 308 308 308 309 309 307 306 306 305 304 306 303 296 298 295 292 287 290 301 297 302 300 298 298 299 297 294 292 287 285 283 292 290 289 288 288 288 286 286 289 291 292 293 294 296 297 298 299
306 306 307 307 307 308 308 308 308 308 308 307 306 305 304 304 305 302 299 299 299 292 287 289 295 298 300 298 300 301 298 293 290 287 285 288 291 288 287 288 287 287 286 285 284 290 291 291 294 296 296 297 297 295
305 306 306 307 307 307 307 307 307 308 307 306 307 305 303 304 303 296 292 298 300 297 290 285 294 294 297 299 300 298 295 292 290 286 285 287 297 292 286 279 291 292 293 291 288 292 292 293 296 298 296 299 296 294
304 305 306 307 307 307 307 307 308 308 307 306 305 304 303 304 298 294 292 297 301 299 290 286 287 295 299 300 299 297 298 294 292 289 287 288 293 293 289 285 289 290 290 291 292 293 292 294 293 298 299 297 297 295
302 304 305 306 306 307 307 308 308 307 306 305 304 303 304 303 298 294 298 301 301 296 294 286 286 291 300 294 294 298 296 295 294 291 293 291 294 292 287 290 290 290 291 292 293 294 293 296 298 298 298 299 294 292
301 303 304 306 306 307 307 307 307 306 305 304 304 302 297 295 292 295 303 303 300 294 288 288 286 287 299 296 298 298 297 289 294 290 290 289 290 287 289 287 287 291 290 291 293 294 295 295 296 296 296 297 292 292
301 302 303 305 306 306 307 307 306 305 304 302 298 294 290 294 302 303 297 292 291 292 291 285 292 288 294 293 293 291 293 287 287 290 293 289 288 291 291 289 292 293 292 293 290 290 292 293 294 294 295 297 294 293
302 302 303 305 307 307 307 306 305 304 301 296 293 292 298 303 297 294 289 287 288 285 288 289 289 287 293 289 287 291 286 288 284 288 288 287 286 289 290 291 294 293 294 293 294 293 294 295 294 294 294 296 297 295
303 302 304 305 306 307 307 305 304 299 296 296 297 299 298 294 291 288 287 289 286 286 291 288 290 291 291 293 288 289 285 289 284 291 287 285 288 291 291 292 292 293 293 293 294 293 294 295 294 294 295 295 296 296
304 304 305 305 306 307 306 304 302 302 301 298 295 291 290 289 283 283 281 286 287 291 293 292 290 292 291 291 289 287 285 283 293 288 285 286 289 289 291 291 291 292 291 292 293 293 295 294 294 293 294 294 295 296
304 304 305 305 306 306 305 303 303 301 298 292 289 283 285 283 284 286 287 290 295 295 295 293 291 289 291 287 287 284 289 290 282 283 283 286 288 290 291 292 291 290 291 290 291 292 294 293 292 293 293 294 294 295
304 304 305 305 306 306 304 303 303 300 295 290 290 283 284 288 292 294 294 293 295 296 295 292 291 291 288 287 287 284 283 281 284 282 285 289 288 289 291 291 289 288 289 291 290 291 292 292 292 291 292 293 293 295
304 304 303 305 305 303 303 302 298 298 294 291 290 287 289 291 290 292 293 293 296 294 291 291 290 290 288 285 283 283 279 279 283 287 286 287 287 291 288 289 289 290 289 290 290 290 291 292 291 291 292 293 292 293
304 301 304 305 303 302 301 296 295 292 290 289 287 291 291 292 291 293 295 295 298 290 286 289 287 287 290 283 281 279 277 280 283 286 286 287 287 290 289 290 291 291 290 289 290 289 290 290 290 290 290 291 291 292
300 303 304 302 300 298 296 296 293 290 287 288 287 290 291 292 293 294 295 294 291 291 291 288 292 287 283 282 278 282 286 288 288 288 288 288 289 291 291 289 291 292 290 290 289 289 289 288 288 288 289 292 290 291
302 302 302 301 298 294 291 291 293 287 287 291 291 291 294 293 295 296 296 297 295 294 291 289 287 286 285 287 287 287 287 288 288 288 289 290 290 291 292 291 291 289 288 288 287 287 287 288 287 288 289 292 289 290
302 301 300 301 301 294 290 290 294 290 288 290 291 290 291 292 295 295 295 293 291 289 287 287 288 289 289 289 290 288 288 290 290 287 287 287 290 290 288 287 287 287 287 287 287 288 287 287 287 287 288 290 290 289
299 299 301 299 297 296 293 289 288 290 291 290 292 293 292 294 293 292 292 293 289 288 286 290 288 289 291 291 291 290 287 290 287 287 284 284 286 287 286 286 287 286 285 285 284 285 286 285 285 287 287 288 290 290
297 299 295 297 294 294 292 293 291 294 291 292 293 293 291 290 291 291 293 288 288 288 291 290 290 291 290 291 290 290 288 287 286 287 288 287 285 284 284 284 285 284 285 284 284 284 285 285 286 286 287 287 288 290
298 297 294 294 290 289 289 295 291 291 288 290 292 290 291 290 292 294 288 288 289 292 293 292 292 290 290 291 291 291 291 288 285 285 286 285 287 286 285 284 285 284 283 284 285 284 284 286 286 286 286 286 286 286
299 293 289 288 288 286 291 290 291 290 290 289 288 289 289 289 292 288 286 286 290 291 291 290 290 287 288 288 286 287 286 286 285 286 286 286 286 284 284 284 284 284 284 283 284 284 284 285 286 285 285 285 285 283
287 287 288 285 289 288 287 287 288 288 288 290 288 288 289 291 285 285 285 287 288 288 290 289 288 288 286 285 285 285 288 287 285 284 284 285 285 283 283 283 283 283 284 283 283 283 283 284 284 284 284 283 283 283
281 286 286 287 287 287 288 286 286 288 290 288 289 292 291 287 285 284 286 289 288 288 290 290 288 287 286 286 284 286 287 286 287 283 282 283 284 282 280 280 279 281 284 283 282 282 283 284 284 284 283 282 282 282
283 285 288 293 292 292 290 291 291 288 289 288 289 288 285 282 283 286 291 292 290 291 292 292 292 290 288 288 286 286 287 287 286 284 284 284 284 284 282 280 280 281 284 285 283 283 282 283 283 282 281 281 281 281
289 290 286 288 290 292 289 289 289 288 289 292 290 287 285 285 285 291 293 296 294 293 292 293 292 291 290 288 287 286 286 286 287 286 285 284 284 285 285 285 285 285 284 284 283 283 283 282 281 281 280 279 279 280
288 291 291 287 289 289 290 289 289 292 294 293 288 286 287 290 293 293 294 293 293 292 290 289 290 291 290 290 289 288 287 286 283 281 280 278 279 281 283 284 284 284 283 282 282 282 282 280 280 279 279 278 278 278
289 293 286 289 287 286 291 294 292 292 291 291 291 291 291 289 290 293 294 293 291 290 290 290 290 289 287 285 283 283 283 282 283 284 279 277 278 280 282 283 283 282 282 281 280 279 279 279 278 278 277 276 275 275
291 290 289 289 288 291 293 293 292 292 292 291 292 289 287 288 290 292 292 292 292 291 290 288 288 289 287 284 282 281 279 280 282 282 281 280 279 280 281 282 282 282 281 279 278 277 276 276 275 274 274 274 274 274
290 289 288 285 285 290 292 290 289 288 287 287 287 289 288 287 285 288 292 292 290 289 286 286 284 282 284 283 282 281 279 278 277 279 279 278 277 279 279 281 282 282 280 278 277 276 275 274 273 273 273 273 273 273
287 289 288 287 285 285 288 287 286 285 286 285 285 286 286 285 283 287 292 291 289 287 285 285 284 283 282 281 279 278 278 278 277 277 277 276 276 276 277 278 281 280 278 276 274 273 271 270 268 267 266 267 268 269
Wind_Speed
12 11 12 12 12 11 11 11 12 12 12 15 14 11 9 9 11 5 2 2 2 3 7 8 6 5 5 4 2 5 6 4 4 5 3 3 2 2 3 3 2 2 2 3 2 2 7 8 3 3 4 10 14 18
11 12 11 11 12 11 11 10 11 11 12 16 14 13 10 8 12 8 2 2 1 4 5 7 15 17 18 19 3 4 3 2 0 3 2 3 2 3 1 3 4 2 2 2 4 7 2 3 8 4 9 16 19 21
11 11 11 11 11 12 11 10 10 10 12 16 14 13 10 9 10 11 2 2 0 3 6 5 5 11 13 20 13 4 1 1 2 3 2 2 1 3 0 1 1 1 3 2 5 2 6 15 8 12 16 18 21 23
11 11 13 13 12 11 11 10 10 10 11 15 14 12 9 7 7 10 2 2 2 2 4 6 4 9 8 7 14 13 4 1 3 3 2 1 2 1 1 2 2 3 4 4 5 7 14 5 14 17 22 22 21 21
11 12 12 12 12 11 10 9 9 9 11 15 13 11 7 8 11 5 1 3 2 1 3 6 11 13 7 5 9 7 5 3 3 3 2 2 2 3 2 1 1 1 2 1 4 12 8 16 17 22 21 23 16 17
12 12 12 12 12 12 10 9 9 8 14 14 13 9 8 6 11 2 2 1 4 3 3 4 5 5 5 8 10 6 4 3 3 3 2 4 3 2 1 2 1 4 4 3 6 11 12 18 18 18 22 19 14 23
12 12 13 13 12 11 10 9 8 11 15 12 11 8 5 15 4 2 1 2 4 3 3 4 5 5 3 5 3 3 2 2 3 3 2 2 1 2 1 2 5 6 6 8 8 11 10 10 16 21 20 8 18 22
14 11 13 12 12 10 9 9 9 14 13 12 8 5 6 12 3 3 3 9 4 2 2 3 4 4 4 3 2 1 3 1 1 3 2 0 1 2 2 4 7 8 10 7 9 11 13 16 18 19 18 18 17 26
14 13 12 12 11 10 8 7 12 15 16 12 14 15 4 1 2 2 2 7 2 1 2 2 2 3 5 3 3 2 2 2 2 2 1 1 2 2 1 2 4 7 7 11 14 13 13 16 19 19 21 20 17 26
15 15 13 12 11 10 9 9 18 19 18 20 4 2 2 4 5 5 2 1 1 2 3 3 2 4 4 1 5 3 3 4 3 1 2 1 1 4 2 1 4 5 8 11 13 15 15 16 17 19 20 18 12 23
13 15 14 12 10 9 10 19 22 22 14 2 2 2 1 5 1 2 3 3 3 3 4 4 5 3 4 3 2 3 3 3 1 2 2 3 1 1 3 5 5 5 7 9 9 11 12 15 16 16 19 19 16 20
13 13 13 11 10 10 15 25 27 8 4 5 3 3 1 2 3 3 3 3 4 4 4 4 6 6 5 2 3 3 1 1 2 5 2 2 2 2 4 5 8 8 7 10 11 12 14 15 15 14 16 17 18 20
14 12 11 11 9 10 23 28 18 18 10 2 2 2 2 3 3 5 4 3 3 4 4 4 3 4 2 2 1 2 1 2 7 3 1 2 2 0 3 5 9 9 9 9 11 11 14 14 15 15 15 16 18 19
12 11 11 11 10 11 26 25 25 12 4 2 4 4 4 4 5 4 2 2 2 5 5 2 2 3 2 2 2 1 3 4 2 2 2 1 1 2 4 6 7 10 11 9 8 11 14 12 15 15 15 15 16 18
11 11 11 9 10 19 26 25 14 3 2 3 3 4 6 5 1 1 2 3 7 4 6 3 3 3 0 2 1 2 2 1 2 1 2 2 3 3 5 3 4 6 6 8 7 8 11 9 12 14 15 15 16 16
9 7 5 10 14 27 27 16 4 2 1 1 4 4 4 1 2 2 3 7 6 4 2 1 2 2 1 3 2 3 2 2 3 2 2 2 2 2 3 2 4 5 6 7 6 7 8 8 11 12 12 14 15 16
9 3 10 17 28 26 18 5 2 3 3 4 4 4 4 3 4 2 3 7 6 2 2 1 1 6 2 3 1 1 5 4 4 3 3 5 4 3 4 4 5 5 6 5 6 7 7 8 9 11 14 15 15 14
3 5 24 31 20 9 3 1 3 4 5 4 3 3 3 3 2 3 4 3 1 1 1 3 2 2 3 4 3 3 2 2 3 5 4 4 4 5 5 4 4 3 4 5 6 5 6 8 10 9 12 13 12 12
7 17 32 26 10 5 3 2 2 3 5 2 3 2 2 2 3 6 7 9 4 1 0 2 0 2 2 2 4 3 3 4 5 4 4 5 4 5 0 4 6 5 6 5 6 5 4 6 5 7 7 9 9 9
24 28 22 17 6 3 4 3 2 3 2 3 2 2 3 3 2 4 5 3 1 1 2 2 0 2 4 2 3 3 3 5 5 3 1 1 3 5 6 5 4 4 5 6 6 6 5 5 4 5 7 8 9 10
17 10 12 4 1 2 3 4 3 4 3 3 3 3 1 1 1 3 3 2 2 1 1 2 3 2 5 4 4 6 6 7 4 5 4 3 2 6 4 4 5 4 4 4 4 6 7 6 5 5 6 7 7 8
5 8 3 2 1 2 1 3 3 2 2 2 2 3 2 3 2 3 3 2 2 3 3 4 4 5 5 5 4 6 6 7 6 5 6 6 5 4 4 3 5 4 4 4 4 5 5 5 5 5 5 6 8 6
11 3 2 2 2 3 3 0 2 3 3 3 4 3 2 3 4 2 2 3 3 0 4 5 5 6 7 4 6 6 5 8 5 5 4 4 7 5 5 5 4 5 4 5 3 4 4 7 7 5 5 5 5 8
6 3 4 5 4 4 3 4 3 2 3 3 3 3 3 4 2 3 2 2 2 2 4 7 8 5 4 5 4 3 3 4 6 6 4 6 7 4 4 4 4 4 3 2 4 4 5 5 7 6 6 8 7 6
5 4 4 4 4 5 5 5 4 3 4 3 5 2 2 2 3 1 3 3 3 4 5 5 5 5 5 3 3 2 1 5 6 7 4 7 6 5 5 4 4 4 3 5 5 5 5 5 5 5 6 9 10 9
4 5 7 8 4 4 4 5 5 5 2 3 3 3 1 2 3 3 3 5 4 5 6 8 6 4 3 4 5 5 4 4 9 8 3 5 5 6 4 4 3 4 4 3 4 5 5 5 6 8 7 10 12 9
5 4 4 3 2 2 2 2 2 3 4 4 4 4 2 3 1 3 3 1 3 3 5 5 6 7 8 7 4 4 6 5 7 6 5 5 5 5 5 4 3 1 3 5 5 5 5 5 7 7 7 8 9 10
3 3 5 4 2 2 2 3 3 4 3 3 3 3 4 2 2 2 2 4 6 8 8 8 10 10 8 6 5 6 6 6 8 7 7 6 5 4 5 5 5 10 7 6 6 6 8 7 7 8 8 9 8 9
1 1 3 4 1 3 4 3 3 1 2 3 3 3 2 2 2 3 3 6 8 11 11 11 9 10 10 9 9 7 5 4 7 10 10 4 5 5 4 5 5 4 4 5 8 8 10 8 8 8 9 7 7 7
4 3 3 3 3 1 2 3 1 1 2 4 4 5 4 4 4 5 4 6 8 9 10 11 9 9 9 10 8 9 7 5 3 8 7 5 3 1 4 4 5 5 6 6 6 6 8 8 7 8 8 7 8 8
4 3 3 3 2 3 2 4 5 6 4 7 7 6 4 4 3 8 7 6 4 7 8 7 6 8 10 9 9 9 6 6 9 10 7 5 4 5 5 5 5 6 6 7 7 7 6 7 7 7 9 10 12 11
3 2 4 3 1 3 5 5 4 4 4 4 3 4 5 5 5 6 7 7 1 7 9 10 10 7 8 9 9 8 9 5 5 5 7 5 5 5 5 5 5 6 7 7 7 7 8 7 7 8 9 12 11 12
3 2 3 3 3 2 2 4 3 3 3 2 2 3 3 3 3 2 5 6 4 10 10 10 9 9 12 12 12 9 9 7 9 9 10 10 9 7 5 5 5 6 8 7 6 6 7 8 7 8 7 8 9 10
Wind_Direction
268 271 272 272 274 275 275 273 269 261 235 214 216 219 245 266 192 177 196 176 210 245 276 265 273 240 261 278 301 321 340 347 22 42 37 306 56 313 31 343 198 136 272 259 4 290 282 6 359 357 274 310 306 304
269 271 272 272 273 274 273 272 268 262 234 211 214 217 239 253 196 186 222 178 188 231 273 307 271 252 239 242 12 303 254 338 100 75 5 330 347 4 211 292 17 5 129 248 187 233 279 342 334 278 314 313 307 310
267 271 272 273 274 269 271 272 265 259 239 206 209 215 238 247 206 183 199 147 186 268 266 249 252 278 235 230 215 235 276 306 29 170 182 233 271 118 301 333 321 58 19 229 9 320 331 323 318 320 318 311 310 303
269 278 282 286 272 264 265 265 258 251 231 199 206 210 231 235 223 174 188 172 160 280 278 281 347 299 300 179 188 211 213 13 126 73 96 184 194 277 219 231 175 210 8 318 258 290 319 278 317 319 311 300 302 308
280 280 279 279 271 262 258 256 253 250 205 194 203 203 219 210 186 179 209 217 200 235 294 290 305 267 286 220 205 199 147 105 61 21 14 249 321 31 355 318 242 142 245 282 270 312 295 295 303 303 304 309 322 325
286 286 284 281 273 262 252 246 241 222 187 193 195 196 201 237 142 123 277 170 199 173 277 294 301 272 273 201 175 149 136 100 97 125 263 297 310 120 234 236 150 52 3 326 280 306 291 286 297 309 311 320 337 322
283 285 288 285 277 265 250 232 222 195 180 190 178 189 198 154 139 186 232 120 133 149 252 290 285 267 260 134 102 96 98 146 135 179 204 234 302 92 211 259 24 342 315 306 289 311 308 314 309 313 321 346 307 322
282 280 286 284 279 257 239 220 200 174 171 157 169 180 174 144 44 301 245 204 161 236 261 275 273 300 171 154 140 159 122 137 217 209 215 238 67 210 247 17 351 343 322 299 318 312 298 298 316 331 324 324 339 328
279 280 280 281 273 248 228 204 171 158 147 149 132 109 84 98 204 223 34 150 158 283 264 245 268 287 322 152 85 71 167 179 235 212 131 80 234 214 28 306 330 334 323 306 318 316 323 330 329 332 332 341 338 334
275 275 275 270 263 239 217 178 151 144 140 126 106 156 193 205 196 134 175 139 126 217 236 250 247 272 311 156 196 161 174 171 193 192 109 184 101 116 68 308 296 329 327 326 326 334 332 328 331 334 335 335 342 336
265 269 268 266 258 227 202 153 143 136 128 114 158 205 89 143 184 191 210 202 172 237 216 230 222 214 266 228 167 188 198 152 159 176 209 207 141 79 44 6 348 330 323 321 314 317 318 323 331 335 335 341 341 338
257 258 259 259 240 213 172 150 148 135 151 158 138 97 126 191 212 244 214 180 208 241 200 205 196 206 263 179 83 337 111 57 200 141 220 163 116 55 7 355 338 328 315 321 334 338 335 335 340 338 336 343 342 335
258 251 251 253 233 204 165 155 145 123 112 81 121 157 205 150 237 220 215 191 227 212 206 206 188 189 261 50 87 104 207 223 118 193 130 81 127 83 24 347 332 335 329 324 333 333 337 345 347 347 344 343 342 340
248 249 247 239 221 195 162 151 142 134 107 173 161 187 215 192 235 200 222 329 332 265 294 266 262 180 187 85 155 120 247 136 225 102 90 155 206 26 3 337 336 335 339 327 320 334 348 350 348 353 349 344 345 346
240 243 239 234 207 167 148 143 135 84 156 171 199 219 215 236 134 206 242 267 246 287 281 278 277 121 128 113 29 52 327 38 45 152 180 167 145 34 310 302 318 316 308 312 328 331 349 346 350 350 353 349 348 349
235 239 214 175 169 145 138 117 69 64 37 228 222 246 254 275 262 192 226 264 264 208 236 206 95 65 358 145 99 209 99 194 175 163 186 153 137 246 269 295 303 303 307 314 333 348 348 345 348 344 345 358 354 353
199 227 171 152 138 131 110 79 105 194 212 215 227 219 260 298 258 228 244 266 277 323 260 110 185 204 159 100 108 122 180 193 174 171 168 169 193 216 202 251 284 313 312 339 337 346 354 359 354 352 360 356 353 352
217 149 139 130 122 91 60 87 178 182 229 232 245 231 200 217 243 282 269 273 240 42 43 229 172 144 160 148 249 222 176 153 150 154 182 201 218 236 233 257 319 322 328 344 345 347 342 358 11 359 351 356 355 356
156 146 142 137 110 102 125 170 235 224 226 247 220 253 270 239 207 246 271 289 255 149 222 6 341 136 207 181 146 158 157 146 153 179 198 208 191 217 314 63 78 52 40 17 3 359 342 8 8 352 346 357 1 360
142 141 133 127 90 110 132 140 217 226 231 228 205 201 203 217 217 272 282 273 87 40 11 43 111 205 160 159 131 148 164 153 122 117 353 351 155 95 86 86 80 55 36 12 6 357 1 4 349 345 351 357 7 6
114 132 123 73 83 46 167 157 198 214 229 202 196 160 232 146 286 273 294 214 72 206 125 137 125 77 88 102 108 100 74 104 126 136 161 94 71 101 91 73 76 53 47 14 11 351 13 5 336 344 353 358 1 10
108 99 91 28 125 198 248 247 172 213 213 235 149 169 197 167 186 235 234 87 207 220 157 143 145 112 84 85 97 103 127 105 102 96 76 103 99 85 72 64 64 48 28 15 19 4 354 343 353 1 354 353 352 11
92 75 100 144 166 187 226 216 199 214 228 180 150 199 200 186 206 148 230 197 212 235 130 118 112 111 113 104 82 67 99 96 81 61 96 94 105 105 93 66 65 73 42 357 16 10 354 337 349 6 352 354 5 16
105 112 153 172 172 192 171 187 224 228 172 188 183 213 206 195 148 123 219 222 211 116 102 123 123 102 74 71 77 71 107 108 96 68 56 90 107 73 83 78 58 64 73 30 30 5 359 353 349 359 9 11 9 15
118 185 158 176 193 191 206 169 190 197 215 170 190 116 269 58 96 181 206 228 140 128 143 129 123 134 131 117 93 80 68 118 104 92 29 86 104 83 65 51 48 42 34 54 24 11 352 355 359 6 29 21 12 18
147 180 188 186 184 195 184 172 189 186 167 145 151 141 264 112 157 214 234 185 166 160 160 158 153 127 111 133 118 90 100 105 100 90 45 86 101 115 118 90 58 351 3 83 58 23 5 5 16 21 36 20 15 22
173 181 194 236 190 155 186 219 137 144 193 173 141 160 179 150 171 276 312 312 147 168 163 160 134 120 123 110 97 95 103 103 113 131 129 94 104 113 110 110 87 283 22 56 40 31 28 28 29 32 35 18 13 20
235 174 172 176 177 169 180 156 165 175 169 138 121 173 152 119 164 255 282 4 82 90 84 92 107 108 103 99 93 94 87 106 101 91 77 56 54 67 70 63 74 78 68 54 45 45 48 44 36 40 40 26 8 13
223 206 110 143 111 193 211 186 160 159 355 115 109 113 110 38 357 318 41 117 102 105 103 99 91 93 85 76 64 54 54 92 125 120 110 89 56 3 22 64 61 60 80 66 49 57 61 55 43 38 38 30 11 5
178 146 115 157 148 122 27 84 105 48 53 110 104 105 77 47 350 349 60 112 114 120 123 121 121 112 111 103 93 65 34 27 65 126 126 125 148 287 56 70 64 62 74 66 53 44 44 44 36 33 32 25 18 10
136 117 95 61 75 339 85 87 68 63 73 90 97 104 111 140 57 24 20 2 112 122 125 111 105 122 122 122 119 112 84 19 59 74 86 89 62 51 51 51 73 82 79 73 62 52 46 43 36 26 25 23 16 14
93 129 120 115 86 5 32 46 41 67 47 58 57 34 23 38 49 359 355 353 43 97 101 109 100 86 89 93 85 82 92 97 76 69 72 69 59 50 44 40 66 77 80 75 65 56 46 45 38 30 21 18 15 12
78 79 92 104 110 97 78 95 76 74 49 65 58 48 49 58 81 353 318 349 100 112 109 106 102 102 101 98 103 98 91 91 87 78 72 68 65 54 43 40 72 72 81 79 70 69 62 61 50 39 27 18 10 5